Regional Weather Roundup
Issued by NWS Upton, NY

Current Version | Previous Version | Text Only | Print | Product List | Glossary Off
Versions: 1 2 3 4 5 6 7 8 9 10 11 12 13 14 15 16 17 18 19 20 21 22 23 24 25 26 27 28 29 30 31 32 33 34 35 36 37 38 39 40 41 42 43 44 45 46 47 48 49 50
000 ASUS41 KOKX 030205 RWROKX REGIONAL WEATHER ROUNDUP NATIONAL WEATHER SERVICE NEW YORK NY 1000 PM EDT TUE SEP 02 2014 NOTE: "FAIR" INDICATES FEW OR NO CLOUDS BELOW 12,000 FEET WITH NO SIGNIFICANT WEATHER AND/OR OBSTRUCTIONS TO VISIBILITY. NYZ071-072-176-178-NJZ106-104-030300- NEW YORK CITY METRO AREA CITY SKY/WX TMP DP RH WIND PRES REMARKS CENTRAL PARK PTCLDY 84 69 60 W10G17 29.84S LAGUARDIA APRT MOCLDY 86 70 58 SW12G21 29.80S HX 90 KENNEDY INTL MOCLDY 84 70 62 SW15 29.82F NEWARK/LIBERTY MOCLDY 86 69 56 SW17G29 29.80F HX 90 BRNX BOT. GARD N/A 86 68 54 SW8 29.81S TETERBORO PTCLDY 86 69 56 S10 29.78F HX 90 $$ NYZ177-179-078>081-030300- LONG ISLAND NEW YORK CITY SKY/WX TMP DP RH WIND PRES REMARKS FARMINGDALE CLEAR 81 71 71 SW14 29.82S ISLIP MOCLDY 80 72 76 SW8 29.80S SHIRLEY CLEAR 80 72 76 SW10G18 29.82F WESTHAMPTON CLEAR 78 72 81 SW9 29.84S MONTAUK POINT N/A 77 71 82 S9 29.82F $$ NYZ052-065-067-030300- HUDSON VALLEY CITY SKY/WX TMP DP RH WIND PRES REMARKS WHITE PLAINS CLEAR 82 66 58 VRB3 29.81F NEWBURGH MOCLDY 81 70 69 SW9 29.81S MONTGOMERY LGT RAIN 78 70 76 SW9 29.79S POUGHKEEPSIE PTCLDY 83 67 58 SW5 29.77S ALBANY CLOUDY 77 67 71 NW21G26 29.78R $$ NJZ001-105-106-008-010-013-015-019>022-104-030300- NEW JERSEY CITY SKY/WX TMP DP RH WIND PRES REMARKS NEWARK/LIBERTY MOCLDY 86 69 56 SW17G29 29.80F HX 90 TETERBORO PTCLDY 86 69 56 S10 29.78F HX 90 CALDWELL MOCLDY 84 67 56 SW8 29.80F MORRISTOWN PTCLDY 84 68 58 SW17G26 29.81 SOMERVILLE CLOUDY 83 66 56 SW10G16 29.82R LINDEN FAIR 90 71 54 W8G17 29.83S HX 96 SUSSEX CLOUDY 76 71 85 SW3 29.81F ANDOVER N/A 79 69 71 SW8 29.83S TRENTON CLOUDY 76 66 71 SW8 29.85S MILLVILLE LGT RAIN 80 71 74 W21G30 29.92R ATLANTIC CITY PTCLDY 80 73 79 CALM 29.88R WRIGHTSTOWN CLOUDY 72 69 91 SW6 29.86S TOMS RIVER PTCLDY 75 70 83 SW6 29.88F BELMAR PTCLDY 81 66 61 SW12G20 29.86R $$ PAZ047>061-062-071-030300- EASTERN PENNSYLVANIA CITY SKY/WX TMP DP RH WIND PRES REMARKS PHILADELPHIA CLOUDY 76 71 85 SW12 29.90R ALLENTOWN CLOUDY 76 66 71 SW20G26 29.87R SCRANTON CLOUDY 75 70 84 W12 29.88R $$ CTZ002-004>006-009-010-012-RIZ004-006-007-MAZ004-011-015-030300- SOUTHERN NEW ENGLAND IN CT CITY SKY/WX TMP DP RH WIND PRES REMARKS BRADLEY INTL PTCLDY 81 71 71 S10 29.76F HARTFORD CLEAR 79 71 76 S7 29.77F DANBURY CLEAR 81 66 60 SW8 29.81F WTRBRY/OXFORD CLEAR 77 70 78 SW6 29.84S BRIDGEPORT CLEAR 81 73 76 SW9 29.79S MERIDEN CLEAR 79 71 76 S6 29.78F NEW HAVEN CLEAR 81 72 74 SW6 29.79F CHESTER FAIR 77 72 83 SW8 29.82S GROTON CLEAR 75 72 90 SW14 29.79F WILLIMANTIC CLEAR 78 71 79 S6 29.79F IN RI CITY SKY/WX TMP DP RH WIND PRES REMARKS PROVIDENCE PTCLDY 77 71 82 SW10 29.80S BLOCK ISLAND CLEAR 73 68 83 SW15G21 29.82F WESTERLY CLEAR 76 71 85 SW8 29.81F IN MA CITY SKY/WX TMP DP RH WIND PRES REMARKS BOSTON PTCLDY 77 70 79 S8 29.76F WORCESTER CLEAR 74 71 91 SW13 29.81F WESTFIELD CLEAR 78 72 81 S8 29.76F PROVINCETOWN CLEAR 73 70 88 S12 29.80F NANTUCKET FOG 70 69 97 S12 29.83F VSB 1/2 $$ ANZ330-335-338-340-345-350-353-355-030300- COASTAL MARINE OBSERVATIONS STATION/POSITION TIME SKY/WX TEMP WIND PRES VSBY WAVE AIR SEA DIR/SP/G HT/PER (UTC) (F) (DEG/KT/KT) (MB) (MI) (FT/S) NY HARB ENTRANCE NOT AVBL 4S FIRE IS NOT AVBL 23SW MTP 0200 N/A 3/ 6 HUDSON CANYON 0200 76 75 220/ 16/ 19 1011.4 3/ 6 EXECUTION ROCKS 0200 82 76 220/ 14/ 19 N/A WESTERN LI SOUND 0200 83 210/ 12/ 16 N/A 0 CENTRAL LI SOUND 0100 77 75 200/ 14/ 16 N/A 1/ 2 EASTERN LI SOUND 0100 74 70 220/ 12/ 14 N/A ROBBINS REEF 0200 85 220/ 14/ 18 N/A $$ >>>>>>>>>>>>>>>>>>>>>>>>>>>> KEY <<<<<<<<<<<<<<<<<<<<<<<<<<< > < > SKY/WX - SKY CONDITION/PRESENT WEATHER < > TMP - TEMPERATURE IN FAHRENHEIT < > DP - DEWPOINT IN FAHRENHEIT < > RH - RELATIVE HUMIDITY IN PERCENT < > WIND - DIRECTION AND SPEED IN MPH < > PRES - MEAN SEA LEVEL PRESSURE IN INCHES OF HG < > WCI - WIND CHILL INDEX < > VSB - VISIBILITY IN MILES < > HX - HEAT INDEX < > TC - TEMPERATURE IN CELSIUS < > VRB - VARIABLE WIND DIRECTION < > < >>>>>>>>>>>>>>>>>>>>>>>>>>>> KEY <<<<<<<<<<<<<<<<<<<<<<<<<<<

USA.gov is the U.S. government's official web portal to all federal, state and local government web resources and services.